Regional Weather Roundup
Issued by NWS Northern Indiana

Home | Current Version | Previous Version | Graphics & Text | Print | Product List | Glossary On
Versions: 1 2 3 4 5 6 7 8 9 10 11 12 13 14 15 16 17 18 19 20 21 22 23 24 25 26 27 28 29 30 31 32 33 34 35 36 37 38 39 40 41 42 43 44 45 46 47 48 49 50
000
ASUS43 KIWX 010100
RWRIWX

KIWX WEATHER ROUNDUP
NATIONAL WEATHER SERVICE NORTHERN INDIANA
900 PM EDT MON AUG 31 2015

NOTE: "FAIR" INDICATES FEW OR NO CLOUDS BELOW 12,000 FEET WITH NO
SIGNIFICANT WEATHER AND/OR OBSTRUCTIONS TO VISIBILITY.

* THESE STATIONS ARE NOT UNDER NWS QUALITY CONTROL. THEY ALSO MAY NOT
  REPORT WEATHER SUCH AS PRECIPITATION OR FOG.

INZ001>027-010200-
NORTHERN INDIANA

CITY           SKY/WX    TMP DP  RH WIND       PRES   REMARKS
GARY*          PTCLDY    73  70  88 CALM      30.03R FOG
SOUTH BEND     CLEAR     74  70  87 CALM      30.05R
ELKHART*       CLEAR     73  70  88 CALM      30.05S
GOSHEN         CLEAR     75  69  81 NE3       30.05R
ANGOLA*        CLEAR     73  66  78 CALM      30.07R
FORT WAYNE     PTCLDY    75  70  84 S5        30.06R

$$
INZ028>050-010200-
CENTRAL INDIANA

CITY           SKY/WX    TMP DP  RH WIND       PRES   REMARKS
LAFAYETTE      CLEAR     76  68  76 CALM      30.04R
KOKOMO*        CLEAR     75  66  73 S5        30.06R
MUNCIE*        MOCLDY    74  65  73 E6        30.08R
INDIANAPOLIS   PTCLDY    77  67  71 SW7       30.07R

$$
MIZ043>046-050>051-056>058-064>065-071>073-077>080-010200-
SOUTHWEST LOWER MICHIGAN

CITY           SKY/WX    TMP DP  RH WIND       PRES   REMARKS
BATTLE CREEK   CLEAR     75  68  78 CALM      30.06S
BENTON HARBOR  CLEAR     70  67  90 CALM      30.03S
COLDWATER*     CLEAR     71  69  96 CALM      30.07R FOG
HILLSDALE*     CLEAR     71  70  95 CALM      30.08R
HOLLAND        CLEAR     69  66  90 CALM      30.05R
GRAND RAPIDS   CLEAR     74  67  78 W5        30.05R
KALAMAZOO      CLEAR     72  66  81 CALM      30.05S
STURGIS*       CLEAR     72  70  94 CALM      30.06R
THREE RIVERS*  FAIR      72  69  90 CALM      30.06R FOG

$$
OHZ001>008-015>018-024>025-010200-
NORTHWEST OHIO

CITY           SKY/WX    TMP DP  RH WIND       PRES   REMARKS
DEFIANCE       FAIR      77  70  79 CALM      30.05R
FINDLAY        FAIR      75  70  84 CALM      30.05S
TOLEDO EXPRESS FAIR      74  71  91 CALM      30.05R
TOLEDO METCALF FAIR      78  67  68 CALM      30.05R
LIMA           FAIR      77  69  76 S5        30.07R

$$
AND FOR LAKE MICHIGAN COASTAL AND OPEN LAKE BUOY OBSERVATIONS

STATION/POSITION TEMP    WIND        PRES    VSBY  WAVE
                 AIR SEA DIR/SP/G                  HT/PER
                 (F)     (DEG/KT/KT) (MB)    (MI)  (FT/S)
CALUMET HARBOR    74      80/  4/  5   N/A
MICHIGAN CITY     76      40/  7/  7   N/A
BURNS HARBOR      74      80/  6/  7 1016.9S
SAINT JOSEPH      77      CALM  /  1 1017.9R
SOUTH LAKE BUOY   70 70  130/  6/  6 1016.4R         0
4 MI NW BRIDGMAN  73 73  100/  4/  6   N/A           0
MICHIGAN CITY     74 73   80/  8/ 10   N/A           1

$$
&&



USA.gov is the U.S. government's official web portal to all federal, state and local government web resources and services.